MAC705 GMAD-GMFF

Flight info

Callsign MAC705
Flight time 0h 53m
Altitude 36000
Route MOGBA UH400 AGOVA UM372 FES
Aircraft A320/M-SDE3FGHIRWY/LB1

Departure

Time 2026-04-21 13:16
Airport Al Massira Airport (GMAD)

Arrival

Time 2026-04-21 14:10
Airport Fes Saïss International Airport (GMFF)
Time Latitude Longitude Altitude Speed Heading
2026-04-21 13:11 30.32813 -9.40908 234 ft 4 kts 50°
2026-04-21 13:11 30.32806 -9.40924 232 ft 0 kts 91°
2026-04-21 13:13 30.32806 -9.40923 235 ft 1 kts 91°
2026-04-21 13:13 30.32805 -9.40870 231 ft 16 kts 91°
2026-04-21 13:14 30.32804 -9.40745 231 ft 15 kts 91°
2026-04-21 13:14 30.32752 -9.40669 231 ft 12 kts 170°
2026-04-21 13:14 30.32668 -9.40666 231 ft 13 kts 180°
2026-04-21 13:14 30.32573 -9.40665 231 ft 15 kts 179°
2026-04-21 13:15 30.32468 -9.40672 231 ft 16 kts 183°
2026-04-21 13:15 30.32356 -9.40675 231 ft 16 kts 178°
2026-04-21 13:15 30.32274 -9.40675 231 ft 11 kts 187°
2026-04-21 13:15 30.32253 -9.40734 231 ft 7 kts 270°
2026-04-21 13:16 30.32255 -9.40859 231 ft 38 kts 272°
2026-04-21 13:16 30.32270 -9.41455 232 ft 107 kts 271°
2026-04-21 13:16 30.32295 -9.42505 433 ft 141 kts 271°
2026-04-21 13:16 30.32340 -9.43629 1150 ft 139 kts 270°
2026-04-21 13:17 30.32405 -9.44758 1742 ft 150 kts 272°
2026-04-21 13:17 30.32472 -9.46083 1976 ft 178 kts 273°
2026-04-21 13:17 30.32540 -9.47610 2285 ft 203 kts 273°
2026-04-21 13:17 30.32599 -9.49321 2795 ft 222 kts 272°
2026-04-21 13:18 30.32448 -9.51176 3273 ft 244 kts 248°
2026-04-21 13:18 30.31430 -9.52814 3714 ft 257 kts 222°
2026-04-21 13:18 30.30049 -9.54124 4630 ft 256 kts 214°
2026-04-21 13:18 30.28625 -9.55361 5595 ft 256 kts 214°
2026-04-21 13:19 30.27388 -9.56864 6538 ft 264 kts 233°
2026-04-21 13:19 30.26688 -9.58861 7465 ft 271 kts 248°
2026-04-21 13:19 30.26214 -9.60972 8415 ft 271 kts 249°
2026-04-21 13:19 30.25754 -9.63092 9375 ft 271 kts 249°
2026-04-21 13:20 30.25296 -9.65215 10195 ft 277 kts 249°
2026-04-21 13:20 30.24806 -9.67436 10459 ft 301 kts 250°
2026-04-21 13:20 30.24503 -9.69940 10664 ft 334 kts 266°
2026-04-21 13:20 30.25097 -9.72681 10815 ft 374 kts 290°
2026-04-21 13:21 30.26782 -9.75132 11012 ft 409 kts 316°
2026-04-21 13:21 30.29351 -9.76710 11526 ft 429 kts 337°
2026-04-21 13:21 30.32248 -9.77656 12172 ft 435 kts 342°
2026-04-21 13:21 30.35249 -9.78248 12806 ft 443 kts 353°
2026-04-21 13:22 30.38356 -9.78253 13442 ft 448 kts 359°
2026-04-21 13:22 30.41423 -9.77887 14015 ft 453 kts
2026-04-21 13:22 30.44552 -9.77357 14568 ft 454 kts
2026-04-21 13:22 30.47691 -9.76935 15145 ft 456 kts
2026-04-21 13:23 30.50845 -9.76449 15693 ft 460 kts
2026-04-21 13:23 30.53870 -9.75335 16224 ft 465 kts 21°
2026-04-21 13:23 30.56741 -9.73494 16760 ft 469 kts 34°
2026-04-21 13:23 30.59223 -9.71022 17298 ft 472 kts 47°
2026-04-21 13:24 30.61239 -9.68069 17742 ft 475 kts 54°
2026-04-21 13:24 30.63196 -9.64961 18246 ft 478 kts 54°
2026-04-21 13:24 30.65151 -9.61840 18666 ft 480 kts 54°
2026-04-21 13:24 30.67121 -9.58694 19089 ft 482 kts 54°
2026-04-21 13:25 30.69128 -9.55488 19501 ft 485 kts 54°
2026-04-21 13:25 30.71087 -9.52365 19900 ft 487 kts 54°
2026-04-21 13:25 30.73090 -9.49179 20334 ft 489 kts 54°
2026-04-21 13:25 30.75141 -9.45962 20713 ft 491 kts 54°
2026-04-21 13:26 30.77179 -9.42828 21101 ft 493 kts 53°
2026-04-21 13:26 30.79271 -9.39648 21477 ft 496 kts 53°
2026-04-21 13:26 30.81380 -9.36457 21808 ft 498 kts 52°
2026-04-21 13:26 30.83490 -9.33260 22168 ft 500 kts 53°
2026-04-21 13:27 30.85608 -9.30031 22518 ft 502 kts 53°
2026-04-21 13:27 30.87725 -9.26780 22858 ft 505 kts 53°
2026-04-21 13:27 30.89836 -9.23517 23179 ft 507 kts 53°
2026-04-21 13:27 30.91959 -9.20227 23506 ft 509 kts 53°
2026-04-21 13:28 30.94091 -9.16920 23774 ft 511 kts 53°
2026-04-21 13:28 30.96227 -9.13614 24041 ft 513 kts 53°
2026-04-21 13:28 30.98383 -9.10287 24304 ft 515 kts 53°
2026-04-21 13:28 31.00548 -9.06947 24533 ft 517 kts 53°
2026-04-21 13:29 31.02712 -9.03600 24792 ft 519 kts 53°
2026-04-21 13:29 31.04886 -9.00209 25099 ft 519 kts 53°
2026-04-21 13:29 31.07031 -8.96831 25432 ft 520 kts 53°
2026-04-21 13:29 31.09166 -8.93449 25821 ft 518 kts 54°
2026-04-21 13:30 31.11274 -8.90105 26209 ft 517 kts 54°
2026-04-21 13:30 31.13408 -8.86727 26550 ft 517 kts 54°
2026-04-21 13:30 31.15566 -8.83313 26912 ft 516 kts 54°
2026-04-21 13:30 31.17669 -8.79984 27278 ft 516 kts 54°
2026-04-21 13:31 31.19801 -8.76616 27700 ft 514 kts 53°
2026-04-21 13:31 31.21923 -8.73263 28070 ft 514 kts 54°
2026-04-21 13:31 31.24042 -8.69908 28524 ft 511 kts 54°
2026-04-21 13:31 31.26142 -8.66574 29053 ft 507 kts 54°
2026-04-21 13:32 31.28224 -8.63264 29498 ft 506 kts 54°
2026-04-21 13:32 31.30306 -8.59948 29909 ft 505 kts 54°
2026-04-21 13:32 31.32384 -8.56635 30259 ft 504 kts 54°
2026-04-21 13:32 31.34454 -8.53337 30590 ft 504 kts 54°
2026-04-21 13:33 31.36531 -8.50031 30914 ft 503 kts 54°
2026-04-21 13:33 31.38602 -8.46725 31240 ft 503 kts 54°
2026-04-21 13:33 31.40667 -8.43418 31572 ft 502 kts 54°
2026-04-21 13:33 31.42721 -8.40124 31908 ft 502 kts 54°
2026-04-21 13:34 31.44782 -8.36824 32243 ft 501 kts 54°
2026-04-21 13:34 31.46843 -8.33528 32579 ft 501 kts 54°
2026-04-21 13:34 31.48905 -8.30225 32831 ft 502 kts 54°
2026-04-21 13:34 31.50932 -8.26969 33126 ft 502 kts 54°
2026-04-21 13:35 31.52992 -8.23656 33440 ft 502 kts 54°
2026-04-21 13:35 31.55045 -8.20358 33787 ft 501 kts 54°
2026-04-21 13:35 31.57100 -8.17052 34098 ft 501 kts 54°
2026-04-21 13:35 31.59152 -8.13747 34371 ft 501 kts 54°
2026-04-21 13:36 31.61164 -8.10402 34636 ft 500 kts 59°
2026-04-21 13:36 31.62861 -8.06852 34902 ft 499 kts 63°
2026-04-21 13:36 31.64486 -8.03264 35154 ft 499 kts 63°
2026-04-21 13:36 31.66122 -7.99665 35402 ft 499 kts 63°
2026-04-21 13:37 31.67757 -7.96080 35640 ft 499 kts 63°
2026-04-21 13:37 31.69398 -7.92480 35834 ft 500 kts 63°
2026-04-21 13:37 31.72697 -7.85229 35883 ft 505 kts 63°
2026-04-21 13:38 31.75995 -7.77945 35879 ft 506 kts 63°
2026-04-21 13:38 31.79296 -7.70652 35883 ft 506 kts 63°
2026-04-21 13:39 31.82577 -7.63390 35881 ft 506 kts 63°
2026-04-21 13:39 31.85870 -7.56086 35874 ft 506 kts 63°
2026-04-21 13:40 31.89157 -7.48775 35875 ft 506 kts 63°
2026-04-21 13:40 31.92446 -7.41442 35869 ft 506 kts 64°
2026-04-21 13:41 31.95729 -7.34109 35863 ft 506 kts 64°
2026-04-21 13:41 31.99003 -7.26774 35859 ft 506 kts 64°
2026-04-21 13:42 32.02275 -7.19437 35840 ft 506 kts 63°
2026-04-21 13:42 32.05554 -7.12077 35836 ft 507 kts 63°
2026-04-21 13:43 32.08823 -7.04713 35840 ft 507 kts 63°
2026-04-21 13:43 32.12094 -6.97326 35834 ft 508 kts 64°
2026-04-21 13:44 32.15332 -6.89992 35833 ft 508 kts 64°
2026-04-21 13:44 32.18587 -6.82605 35837 ft 507 kts 63°
2026-04-21 13:45 32.21837 -6.75225 35849 ft 506 kts 63°
2026-04-21 13:45 32.25089 -6.67838 35846 ft 506 kts 63°
2026-04-21 13:46 32.28329 -6.60465 35837 ft 506 kts 64°
2026-04-21 13:46 32.31559 -6.53070 35850 ft 506 kts 64°
2026-04-21 13:47 32.34774 -6.45683 35844 ft 505 kts 64°
2026-04-21 13:47 32.38003 -6.38276 35848 ft 505 kts 64°
2026-04-21 13:48 32.41641 -6.31255 35854 ft 505 kts 50°
2026-04-21 13:48 32.46733 -6.25607 35871 ft 501 kts 33°
2026-04-21 13:49 32.52434 -6.20850 35856 ft 502 kts 33°
2026-04-21 13:49 32.58139 -6.16065 35852 ft 502 kts 33°
2026-04-21 13:50 32.63836 -6.11283 35840 ft 502 kts 33°
2026-04-21 13:50 32.69530 -6.06501 35848 ft 501 kts 33°
2026-04-21 13:51 32.75201 -6.01731 35887 ft 499 kts 33°
2026-04-21 13:51 32.80874 -5.96956 35871 ft 498 kts 33°
2026-04-21 13:52 32.86491 -5.92235 35634 ft 499 kts 33°
2026-04-21 13:52 32.89305 -5.89870 34691 ft 505 kts 33°
2026-04-21 13:52 32.92179 -5.87454 33912 ft 506 kts 33°
2026-04-21 13:53 32.95040 -5.85043 33609 ft 502 kts 33°
2026-04-21 13:53 32.97884 -5.82641 33336 ft 501 kts 34°
2026-04-21 13:53 33.00728 -5.80237 33067 ft 501 kts 34°
2026-04-21 13:53 33.03568 -5.77835 32827 ft 501 kts 34°
2026-04-21 13:54 33.06407 -5.75430 32564 ft 501 kts 34°
2026-04-21 13:54 33.09246 -5.73023 32302 ft 501 kts 34°
2026-04-21 13:54 33.12052 -5.70644 31990 ft 501 kts 34°
2026-04-21 13:54 33.14901 -5.68229 30843 ft 508 kts 34°
2026-04-21 13:55 33.17802 -5.65768 29842 ft 511 kts 34°
2026-04-21 13:55 33.20696 -5.63306 28833 ft 511 kts 34°
2026-04-21 13:55 33.23589 -5.60844 27950 ft 508 kts 34°
2026-04-21 13:55 33.26462 -5.58399 26915 ft 507 kts 34°
2026-04-21 13:56 33.29342 -5.55949 25840 ft 508 kts 34°
2026-04-21 13:56 33.32222 -5.53497 24749 ft 509 kts 34°
2026-04-21 13:56 33.35112 -5.51033 23855 ft 507 kts 34°
2026-04-21 13:56 33.37941 -5.48611 23333 ft 495 kts 34°
2026-04-21 13:57 33.40727 -5.46223 22461 ft 490 kts 34°
2026-04-21 13:57 33.43483 -5.43858 21669 ft 485 kts 34°
2026-04-21 13:57 33.46218 -5.41514 20791 ft 482 kts 35°
2026-04-21 13:57 33.48936 -5.39186 20011 ft 478 kts 35°
2026-04-21 13:58 33.51626 -5.36883 19297 ft 473 kts 35°
2026-04-21 13:58 33.54287 -5.34605 18610 ft 468 kts 35°
2026-04-21 13:58 33.56887 -5.32377 17951 ft 463 kts 35°
2026-04-21 13:58 33.59490 -5.30143 17165 ft 458 kts 35°
2026-04-21 13:59 33.62069 -5.27924 16442 ft 454 kts 36°
2026-04-21 13:59 33.64613 -5.25728 15772 ft 448 kts 36°
2026-04-21 13:59 33.67129 -5.23553 15122 ft 442 kts 36°
2026-04-21 13:59 33.69613 -5.21407 14456 ft 437 kts 37°
2026-04-21 14:00 33.72066 -5.19283 13828 ft 433 kts 37°
2026-04-21 14:00 33.74496 -5.17178 13156 ft 428 kts 37°
2026-04-21 14:00 33.76902 -5.15096 12427 ft 424 kts 37°
2026-04-21 14:00 33.79256 -5.13060 11984 ft 404 kts 37°
2026-04-21 14:01 33.81444 -5.11168 11755 ft 373 kts 37°
2026-04-21 14:01 33.83469 -5.09417 11625 ft 344 kts 36°
2026-04-21 14:01 33.85351 -5.07787 11370 ft 325 kts 37°
2026-04-21 14:01 33.87153 -5.06223 10880 ft 316 kts 37°
2026-04-21 14:02 33.88330 -5.05201 10478 ft 313 kts 37°
2026-04-21 14:02 33.90673 -5.03163 9655 ft 308 kts 38°
2026-04-21 14:02 33.92160 -5.01408 9062 ft 300 kts 54°
2026-04-21 14:03 33.93719 -4.97128 8645 ft 261 kts 75°
2026-04-21 14:03 33.94205 -4.95053 8244 ft 254 kts 75°
2026-04-21 14:03 33.94684 -4.93021 7837 ft 250 kts 74°
2026-04-21 14:03 33.95157 -4.91014 7401 ft 248 kts 74°
2026-04-21 14:04 33.95625 -4.89028 6953 ft 246 kts 74°
2026-04-21 14:04 33.96070 -4.87138 6528 ft 245 kts 73°
2026-04-21 14:04 33.96531 -4.85163 6104 ft 246 kts 73°
2026-04-21 14:04 33.96989 -4.83189 5838 ft 244 kts 73°
2026-04-21 14:05 33.97445 -4.81230 5635 ft 241 kts 73°
2026-04-21 14:05 33.97901 -4.79261 5473 ft 243 kts 72°
2026-04-21 14:05 33.98252 -4.77275 5303 ft 243 kts 90°
2026-04-21 14:05 33.97789 -4.75337 5127 ft 245 kts 125°
2026-04-21 14:06 33.96496 -4.74057 4955 ft 243 kts 161°
2026-04-21 14:06 33.95411 -4.73808 4849 ft 241 kts 183°
2026-04-21 14:06 33.93848 -4.74396 4696 ft 235 kts 218°
2026-04-21 14:06 33.92842 -4.75890 4578 ft 229 kts 251°
2026-04-21 14:07 33.92615 -4.77749 4475 ft 224 kts 272°
2026-04-21 14:07 33.92633 -4.79619 4366 ft 224 kts 272°
2026-04-21 14:07 33.92651 -4.81485 4226 ft 222 kts 271°
2026-04-21 14:07 33.92662 -4.83347 3970 ft 222 kts 272°
2026-04-21 14:08 33.92672 -4.85202 3714 ft 222 kts 273°
2026-04-21 14:08 33.92680 -4.87014 3428 ft 210 kts 273°
2026-04-21 14:08 33.92687 -4.88728 3172 ft 199 kts 274°
2026-04-21 14:08 33.92694 -4.90351 2950 ft 186 kts 274°
2026-04-21 14:09 33.92703 -4.91848 2751 ft 171 kts 272°
2026-04-21 14:09 33.92709 -4.93227 2533 ft 160 kts 274°
2026-04-21 14:09 33.92711 -4.94516 2286 ft 150 kts 274°
2026-04-21 14:09 33.92726 -4.95757 1988 ft 146 kts 273°
2026-04-21 14:10 33.92731 -4.96929 1859 ft 127 kts 273°
2026-04-21 14:10 33.92731 -4.97800 1856 ft 79 kts 270°
2026-04-21 14:10 33.92732 -4.98258 1855 ft 34 kts 270°
2026-04-21 14:10 33.92733 -4.98499 1857 ft 25 kts 272°
2026-04-21 14:11 33.92785 -4.98588 1856 ft 8 kts
2026-04-21 14:11 33.92840 -4.98591 1858 ft 8 kts
2026-04-21 14:11 33.92888 -4.98568 1858 ft 8 kts 40°
2026-04-21 14:11 33.92913 -4.98510 1857 ft 8 kts 76°
2026-04-21 14:12 33.92913 -4.98440 1855 ft 8 kts 91°
2026-04-21 14:12 33.92912 -4.98376 1854 ft 7 kts 90°
2026-04-21 14:12 33.92912 -4.98332 1855 ft 4 kts 90°
2026-04-21 14:12 33.92912 -4.98304 1855 ft 3 kts 90°
2026-04-21 14:13 33.92913 -4.98265 1856 ft 4 kts 84°
2026-04-21 14:13 33.92924 -4.98254 1856 ft 1 kts 30°
2026-04-21 14:13 33.92946 -4.98251 1856 ft 4 kts
2026-04-21 14:13 33.92976 -4.98251 1857 ft 3 kts 360°
2026-04-21 14:14 33.92979 -4.98251 1857 ft 0 kts 360°